Alexandria Esle, LA

6:13 AM CDT on July 23, 2017 (GMT -0500)
Alexandria Esler Regional

Weather History for KESF - May, 2013

Change the Weather History Date:

Tuesday, May 28, 2013

  Actual Average Record
Temperature  
Mean Temperature 80 °F -  
Max Temperature 89 °F 85 °F 96 °F (1977)
Min Temperature 70 °F 63 °F 44 °F (1961)
Cooling Degree Days 14    
Growing Degree Days 30 (Base 50)    
Moisture  
Dew Point 67 °F    
Average Humidity 70    
Maximum Humidity 93    
Minimum Humidity 42    
Precipitation  
Precipitation 0.00 in - - ()
Sea Level Pressure  
Sea Level Pressure 29.98 in    
Wind  
Wind Speed 5 mph (SSE)    
Max Wind Speed 13 mph    
Max Gust Speed 20 mph    
Visibility 10 miles    
Events      
Averages and records for this station are not official NWS values.
T = Trace of Precipitation, MM = Missing Value Source: NWS Daily Summary

Daily Weather History Graph

Daily Weather History Graph

Search for Another Location

Airport or City:

Trip Planner

Search our weather history database for the weather conditions in past years. The results will help you decide how hot, cold, wet, or windy it might be!

Date:

Astronomy

May. 28, 2013 Rise Set
Actual Time 6:06 AM CDT 8:06 PM CDT
Civil Twilight 5:39 AM CDT 8:34 PM CDT
Nautical Twilight 5:05 AM CDT 9:07 PM CDT
Astronomical Twilight 4:30 AM CDT 9:43 PM CDT
Moon 11:39 PM CDT (5/28) 9:49 AM CDT (5/28)
Length of Visible Light 14h 55m
Length of Day
14h 00m
Waning Gibbous, 82% of the Moon is Illuminated
May 28
Waning Gibbous
May 31
Last Quarter
Jun 8
New
Jun 16
First Quarter
Jun 23
Full

Hourly Weather History & Observations

Time (CDT) Temp. Heat Index Dew Point Humidity Pressure Visibility Wind Dir Wind Speed Gust Speed Precip Events Conditions
12:53 AM 70.0 °F - 66.0 °F 87% 30.02 in 10.0 mi SSE 3.5 mph - N/A   Clear
1:53 AM 71.1 °F - 66.9 °F 87% 30.00 in 10.0 mi SE 4.6 mph - N/A   Clear
2:53 AM 71.1 °F - 68.0 °F 90% 29.99 in 10.0 mi South 4.6 mph - N/A   Clear
3:53 AM 72.0 °F - 68.0 °F 87% 29.98 in 10.0 mi Calm Calm - N/A   Mostly Cloudy
4:03 AM 71.6 °F - 68.0 °F 88% 29.99 in 10.0 mi SSE 3.5 mph - N/A   Partly Cloudy
4:53 AM 71.1 °F - 68.0 °F 90% 29.99 in 9.0 mi SE 3.5 mph - N/A   Clear
5:53 AM 70.0 °F - 68.0 °F 93% 29.99 in 8.0 mi Calm Calm - N/A   Clear
6:53 AM 71.1 °F - 68.0 °F 90% 29.99 in 9.0 mi SE 3.5 mph - N/A   Clear
7:53 AM 75.0 °F - 69.1 °F 82% 29.99 in 10.0 mi SSE 6.9 mph - N/A   Clear
8:53 AM 79.0 °F - 69.1 °F 72% 30.00 in 10.0 mi SSE 9.2 mph - N/A   Clear
9:39 AM 80.6 °F 83.9 °F 69.8 °F 70% 30.01 in 10.0 mi SSE 11.5 mph 19.6 mph N/A   Mostly Cloudy
9:53 AM 81.0 °F 84.1 °F 69.1 °F 67% 30.01 in 10.0 mi South 12.7 mph 17.3 mph N/A   Mostly Cloudy
10:53 AM 82.0 °F 84.9 °F 68.0 °F 62% 30.01 in 10.0 mi South 6.9 mph - N/A   Mostly Cloudy
11:53 AM 84.0 °F 86.3 °F 66.0 °F 55% 30.01 in 10.0 mi South 8.1 mph - N/A   Mostly Cloudy
12:53 PM 84.0 °F 85.8 °F 64.9 °F 53% 30.00 in 10.0 mi SE 9.2 mph - N/A   Mostly Cloudy
1:53 PM 86.0 °F 88.2 °F 66.0 °F 51% 29.99 in 10.0 mi SW 10.4 mph 18.4 mph N/A   Scattered Clouds
2:53 PM 88.0 °F 89.3 °F 64.0 °F 45% 29.97 in 10.0 mi South 11.5 mph 17.3 mph N/A   Partly Cloudy
3:53 PM 89.1 °F 90.0 °F 63.0 °F 42% 29.96 in 10.0 mi SSE 9.2 mph - N/A   Clear
4:53 PM 88.0 °F 89.6 °F 64.9 °F 46% 29.95 in 10.0 mi South 10.4 mph - N/A   Clear
5:53 PM 87.1 °F 88.3 °F 64.0 °F 46% 29.94 in 10.0 mi South 5.8 mph - N/A   Clear
6:53 PM 86.0 °F 86.8 °F 63.0 °F 46% 29.93 in 10.0 mi South 8.1 mph - N/A   Scattered Clouds
7:53 PM 80.1 °F 81.7 °F 64.0 °F 58% 29.94 in 10.0 mi SSE 4.6 mph - N/A   Clear
8:53 PM 73.9 °F - 66.9 °F 79% 29.95 in 10.0 mi SE 5.8 mph - N/A   Clear
9:53 PM 75.9 °F - 66.9 °F 74% 29.96 in 10.0 mi SE 4.6 mph - N/A   Clear
10:53 PM 73.9 °F - 66.9 °F 79% 29.97 in 10.0 mi Calm Calm - N/A   Clear
11:53 PM 73.0 °F - 68.0 °F 84% 29.98 in 10.0 mi SE 4.6 mph - N/A   Clear